Rbgn^[z[y[W
メイン
   新天体発見情報
     Comet C/2017 AB5 (PANSTARRS)
投稿するにはまず登録を

フラット表示 前のトピック | 次のトピック
投稿者 スレッド
佐藤裕久
投稿日時: 2018-1-9 12:44
モデレータ
登録日: 2005-6-12
居住地: 日本
投稿: 1831
オンライン
Comet C/2017 AB5 (PANSTARRS)

1年前、Haleakala にある1.8-m Pan-STARRS1望遠鏡で撮ったCCD露出で小惑星状天体が発見され、
2018年1月5日に撮ったPan-STARRS1画像で再発見(Pan-STARRS1の追加観測の2017年12月9日から
R. Werykによって確認)された。Werykの注記によると、現在の観測がこの天体が彗星であるよ
うに見え、南西に向かって3"の短い尾があり、この彗星の頭部のFWHM(半値全幅)は(近傍の恒
星が1".2-1".3 であるのに対し)約2"であった。
この天体は、MPS 757607上で小惑星仮符号2017 AB5と発表されていた。2017年1月6日と7日、
M. SchwartzとP. R. Hovorcemによって南アリゾナにあるTenagra II天文台の0.81-m反射望遠
鏡で20.9-21.7等と観測されていた。

発見位置は次のとおり、

     2017 UT             R.A. (2000) Decl.       Mag.
     Jan.  3.40708    6 33 13.61   +53 23 44.3   21.3
           3.40786    6 33 13.60   +53 23 44.4   21.5
           3.42073    6 33 13.26   +53 23 45.0   21.5
           3.42151    6 33 13.21   +53 23 45.2   21.7
           3.43438    6 33 12.87   +53 23 45.8   21.3
           3.44808    6 33 12.51   +53 23 46.5   21.3
           3.44884    6 33 12.49   +53 23 46.6   21.5
           4.37713    6 32 48.07   +53 24 32.0   21.3
           4.38979    6 32 47.72   +53 24 32.3   21.0
           4.40244    6 32 47.38   +53 24 33.1   21.0
           4.41506    6 32 47.04   +53 24 33.8   21.2
     Dec.  9.58937    8 52 31.21   +52 52 04.7   19.7
           9.60221    8 52 31.12   +52 52 07.4   19.9
           9.62796    8 52 30.95   +52 52 12.9   20.0

     2018 UT             R.A. (2000) Decl.       Mag,
     Jan.  5.50367    8 46 09.41   +54 15 11.9   20.1
           5.51679    8 46 09.13   +54 15 14.3   20.1
           5.52996    8 46 08.84   +54 15 15.9   19.9
           5.54312    8 46 08.54   +54 15 18.2   19.9

準放物線軌道要素と位置推算表は次のとおり、

Orbital elements:
    C/2017 AB5 (PANSTARRS)
Epoch 2018 Feb. 11.0 TT = JDT 2458160.5
T 2018 Feb. 17.04510 TT                                 MPCW
q   9.2171369            (2000.0)            P               Q
z  +0.0000219      Peri.   78.35247     -0.41212949     -0.83541477
 +/-0.0000051      Node    42.69219     +0.47412506     -0.53745330
e   0.9997983      Incl.   32.43143     +0.77804544     -0.11500484
From 40 observations 2017 Jan. 3-2018 Jan. 7, mean residual 0".3.

    C/2017 AB5 (PANSTARRS)
Epoch 2017 Sept. 4.0 TT = JDT 2458000.5
T 2018 Feb. 16.96979 TT                                 MPCW
q   9.2171582            (2000.0)            P               Q
z  -0.0000536      Peri.   78.34998     -0.41208563     -0.83543885
 +/-0.0000051      Node    42.69155     +0.47415410     -0.53742384
e   1.0004940      Incl.   32.43131     +0.77805098     -0.11496757
From 40 observations 2017 Jan. 3-2018 Jan. 7, mean residual 0".3.

Ephemeris:
    C/2017 AB5 (PANSTARRS)
Date    TT    R. A. (2000) Decl.     Delta      r     Elong.  Phase   m1
2017 12 08    08 52 40.2 +52 46 32   8.6027  9.2259   126.7     4.9  19.8
...
2017 12 23    08 50 11.4 +53 36 48   8.4812  9.2226   136.8     4.2  19.8
...
2017 12 31    08 47 58.6 +54 00 36   8.4369  9.2212   140.9     3.9  19.8
...
2018 01 06    08 45 58.9 +54 16 25   8.4140  9.2202   143.2     3.7  19.8
2018 01 07    08 45 37.5 +54 18 52   8.4110  9.2201   143.5     3.6  19.8
2018 01 08    08 45 15.8 +54 21 14   8.4083  9.2199   143.8     3.6  19.8
...
2018 01 14    08 42 58.1 +54 34 10   8.3975  9.2192   144.8     3.5  19.8
...
2018 01 22    08 39 40.8 +54 47 29   8.3975  9.2183   144.7     3.5  19.8
...
2018 02 06    08 33 20.5 +54 59 00   8.4414  9.2174   139.9     4.0  19.8

(CBET 4468、MPEC 2018-A26) 


フラット表示 前のトピック | 次のトピック

題名 投稿者 日時
 » Comet C/2017 AB5 (PANSTARRS) 佐藤裕久 2018-1-9 12:44

投稿するにはまず登録を
 
© 1999-2013 Tsutomu Seki.